owner,sensor,date,latitude,longitude,vertical_datum,sea_water_temperature,qcFlag
W and T,ioos:station:wmo:42901:1,2020-06-01T00:00:00Z,28.1635,-88.4842,38.8,25.5,11111222
W and T,ioos:station:wmo:42901:1,2020-06-01T00:20:00Z,28.1635,-88.4842,38.8,25.4,11111222
W and T,ioos:station:wmo:42901:1,2020-06-01T00:40:00Z,28.1635,-88.4842,38.7,25.5,11111222
W and T,ioos:station:wmo:42901:1,2020-06-01T01:00:00Z,28.1635,-88.4842,38.7,25.4,11111222
W and T,ioos:station:wmo:42901:1,2020-06-01T01:20:00Z,28.1635,-88.4842,38.7,25.6,11111222
W and T,ioos:station:wmo:42901:1,2020-06-01T01:40:00Z,28.1635,-88.4842,38.7,25.8,11111222
W and T,ioos:station:wmo:42901:1,2020-06-01T02:00:00Z,28.1635,-88.4842,38.8,25.8,11111222
W and T,ioos:station:wmo:42901:1,2020-06-01T02:20:00Z,28.1635,-88.4842,38.8,25.5,11111222
W and T,ioos:station:wmo:42901:1,2020-06-01T02:40:00Z,28.1635,-88.4842,38.9,25.4,11111222
W and T,ioos:station:wmo:42901:1,2020-06-01T03:00:00Z,28.1635,-88.4842,38.8,25.3,11111222
W and T,ioos:station:wmo:42901:1,2020-06-01T03:20:00Z,28.1635,-88.4842,38.8,25.5,11111222
W and T,ioos:station:wmo:42901:1,2020-06-01T03:40:00Z,28.1635,-88.4842,38.9,25.7,11111222
W and T,ioos:station:wmo:42901:1,2020-06-01T04:00:00Z,28.1635,-88.4842,38.8,25.6,11111222
W and T,ioos:station:wmo:42901:1,2020-06-01T04:20:00Z,28.1635,-88.4842,38.9,25.7,11111222
W and T,ioos:station:wmo:42901:1,2020-06-01T04:40:00Z,28.1635,-88.4842,38.9,25.8,11111222
W and T,ioos:station:wmo:42901:1,2020-06-01T05:00:00Z,28.1635,-88.4842,38.9,25.8,11111222
W and T,ioos:station:wmo:42901:1,2020-06-01T05:20:00Z,28.1635,-88.4842,38.9,25.6,11111222
W and T,ioos:station:wmo:42901:1,2020-06-01T05:40:00Z,28.1635,-88.4842,38.9,25.4,11111222
W and T,ioos:station:wmo:42901:1,2020-06-01T06:00:00Z,28.1635,-88.4842,39.0,25.4,11111222
W and T,ioos:station:wmo:42901:1,2020-06-01T06:20:00Z,28.1635,-88.4842,39.1,25.3,11111222
W and T,ioos:station:wmo:42901:1,2020-06-01T06:40:00Z,28.1635,-88.4842,39.2,25.4,11111222
W and T,ioos:station:wmo:42901:1,2020-06-01T07:00:00Z,28.1635,-88.4842,39.0,25.5,11111222
W and T,ioos:station:wmo:42901:1,2020-06-01T07:20:00Z,28.1635,-88.4842,39.1,25.5,11111222
W and T,ioos:station:wmo:42901:1,2020-06-01T07:40:00Z,28.1635,-88.4842,38.6,25.5,11111222
W and T,ioos:station:wmo:42901:1,2020-06-01T08:00:00Z,28.1635,-88.4842,38.8,25.5,11111222
W and T,ioos:station:wmo:42901:1,2020-06-01T08:20:00Z,28.1635,-88.4842,38.8,25.5,11111222
W and T,ioos:station:wmo:42901:1,2020-06-01T08:40:00Z,28.1635,-88.4842,38.8,25.4,11111222
W and T,ioos:station:wmo:42901:1,2020-06-01T09:00:00Z,28.1635,-88.4842,38.8,25.4,11111222
W and T,ioos:station:wmo:42901:1,2020-06-01T09:20:00Z,28.1635,-88.4842,38.8,25.5,11111222
W and T,ioos:station:wmo:42901:1,2020-06-01T09:40:00Z,28.1635,-88.4842,38.8,25.5,11111222
W and T,ioos:station:wmo:42901:1,2020-06-01T10:00:00Z,28.1635,-88.4842,38.8,25.3,11111222
W and T,ioos:station:wmo:42901:1,2020-06-01T10:20:00Z,28.1635,-88.4842,38.8,24.9,11111222
W and T,ioos:station:wmo:42901:1,2020-06-01T10:40:00Z,28.1635,-88.4842,38.7,25.4,11111222
W and T,ioos:station:wmo:42901:1,2020-06-01T11:00:00Z,28.1635,-88.4842,38.7,25.5,11111222
W and T,ioos:station:wmo:42901:1,2020-06-01T11:20:00Z,28.1635,-88.4842,38.7,25.6,11111222
W and T,ioos:station:wmo:42901:1,2020-06-01T11:40:00Z,28.1635,-88.4842,38.8,25.7,11111222
W and T,ioos:station:wmo:42901:1,2020-06-01T12:00:00Z,28.1635,-88.4842,38.8,25.6,11111222
W and T,ioos:station:wmo:42901:1,2020-06-01T12:20:00Z,28.1635,-88.4842,38.7,25.4,11111222
W and T,ioos:station:wmo:42901:1,2020-06-01T12:40:00Z,28.1635,-88.4842,38.7,25.4,11111222
W and T,ioos:station:wmo:42901:1,2020-06-01T13:00:00Z,28.1635,-88.4842,38.7,25.4,11111222
W and T,ioos:station:wmo:42901:1,2020-06-01T13:20:00Z,28.1635,-88.4842,38.6,25.3,11111222
W and T,ioos:station:wmo:42901:1,2020-06-01T13:40:00Z,28.1635,-88.4842,38.8,25.2,11111222
W and T,ioos:station:wmo:42901:1,2020-06-01T14:00:00Z,28.1635,-88.4842,38.8,25.1,11111222
W and T,ioos:station:wmo:42901:1,2020-06-01T14:20:00Z,28.1635,-88.4842,38.8,25.1,11111222
W and T,ioos:station:wmo:42901:1,2020-06-01T16:00:00Z,28.1635,-88.4842,41.2,25.6,11111222
W and T,ioos:station:wmo:42901:1,2020-06-01T16:20:00Z,28.1635,-88.4842,41.1,25.5,11111222
W and T,ioos:station:wmo:42901:1,2020-06-01T16:40:00Z,28.1635,-88.4842,41.1,25.7,11111222
W and T,ioos:station:wmo:42901:1,2020-06-01T17:00:00Z,28.1635,-88.4842,41.1,25.8,11111222
W and T,ioos:station:wmo:42901:1,2020-06-01T17:20:00Z,28.1635,-88.4842,41.3,25.9,11111222
W and T,ioos:station:wmo:42901:1,2020-06-01T17:40:00Z,28.1635,-88.4842,41.4,25.9,11111222
W and T,ioos:station:wmo:42901:1,2020-06-01T18:00:00Z,28.1635,-88.4842,41.5,25.9,11111222
W and T,ioos:station:wmo:42901:1,2020-06-01T18:20:00Z,28.1635,-88.4842,41.5,25.9,11111222
W and T,ioos:station:wmo:42901:1,2020-06-01T18:40:00Z,28.1635,-88.4842,41.5,25.9,11111222
W and T,ioos:station:wmo:42901:1,2020-06-01T19:00:00Z,28.1635,-88.4842,41.5,25.9,11111222
W and T,ioos:station:wmo:42901:1,2020-06-01T19:20:00Z,28.1635,-88.4842,41.5,25.9,11111222
W and T,ioos:station:wmo:42901:1,2020-06-01T19:40:00Z,28.1635,-88.4842,41.5,25.9,11111222
W and T,ioos:station:wmo:42901:1,2020-06-01T20:00:00Z,28.1635,-88.4842,41.5,26.0,11111222
W and T,ioos:station:wmo:42901:1,2020-06-01T20:20:00Z,28.1635,-88.4842,41.4,26.0,11111222
W and T,ioos:station:wmo:42901:1,2020-06-01T20:40:00Z,28.1635,-88.4842,41.6,26.0,11111222
W and T,ioos:station:wmo:42901:1,2020-06-01T21:00:00Z,28.1635,-88.4842,41.7,26.0,11111222
W and T,ioos:station:wmo:42901:1,2020-06-01T21:20:00Z,28.1635,-88.4842,41.7,26.1,11111222
W and T,ioos:station:wmo:42901:1,2020-06-01T21:40:00Z,28.1635,-88.4842,41.6,26.1,11111222
W and T,ioos:station:wmo:42901:1,2020-06-01T22:00:00Z,28.1635,-88.4842,41.5,26.1,11111222
W and T,ioos:station:wmo:42901:1,2020-06-01T22:20:00Z,28.1635,-88.4842,41.4,26.0,11111222
W and T,ioos:station:wmo:42901:1,2020-06-01T22:40:00Z,28.1635,-88.4842,41.4,26.0,11111222
W and T,ioos:station:wmo:42901:1,2020-06-01T23:00:00Z,28.1635,-88.4842,41.4,25.9,11111222
W and T,ioos:station:wmo:42901:1,2020-06-01T23:20:00Z,28.1635,-88.4842,41.4,25.7,11111222
W and T,ioos:station:wmo:42901:1,2020-06-01T23:40:00Z,28.1635,-88.4842,41.4,25.6,11111222
W and T,ioos:station:wmo:42901:1,2020-06-02T00:40:00Z,28.1635,-88.4842,39.1,25.9,11111222
W and T,ioos:station:wmo:42901:1,2020-06-02T01:00:00Z,28.1635,-88.4842,39.0,26.0,11111222
W and T,ioos:station:wmo:42901:1,2020-06-02T01:20:00Z,28.1635,-88.4842,39.0,26.0,11111222
W and T,ioos:station:wmo:42901:1,2020-06-02T01:40:00Z,28.1635,-88.4842,39.0,26.0,11111222
W and T,ioos:station:wmo:42901:1,2020-06-02T02:00:00Z,28.1635,-88.4842,39.0,26.0,11111222
W and T,ioos:station:wmo:42901:1,2020-06-02T02:20:00Z,28.1635,-88.4842,39.1,26.2,11111222
W and T,ioos:station:wmo:42901:1,2020-06-02T02:40:00Z,28.1635,-88.4842,39.2,26.3,11111222
W and T,ioos:station:wmo:42901:1,2020-06-02T03:00:00Z,28.1635,-88.4842,39.2,26.4,11111222
W and T,ioos:station:wmo:42901:1,2020-06-02T03:20:00Z,28.1635,-88.4842,39.2,26.4,11111222
W and T,ioos:station:wmo:42901:1,2020-06-02T03:40:00Z,28.1635,-88.4842,39.2,26.4,11111222
W and T,ioos:station:wmo:42901:1,2020-06-02T04:00:00Z,28.1635,-88.4842,39.1,26.5,11111222
W and T,ioos:station:wmo:42901:1,2020-06-02T04:20:00Z,28.1635,-88.4842,39.1,26.5,11111222
W and T,ioos:station:wmo:42901:1,2020-06-02T04:40:00Z,28.1635,-88.4842,39.2,26.2,11111222
W and T,ioos:station:wmo:42901:1,2020-06-02T05:00:00Z,28.1635,-88.4842,39.2,26.2,11111222
W and T,ioos:station:wmo:42901:1,2020-06-02T05:20:00Z,28.1635,-88.4842,39.3,26.3,11111222
W and T,ioos:station:wmo:42901:1,2020-06-02T05:40:00Z,28.1635,-88.4842,39.3,26.2,11111222
W and T,ioos:station:wmo:42901:1,2020-06-02T06:00:00Z,28.1635,-88.4842,39.3,26.0,11111222
W and T,ioos:station:wmo:42901:1,2020-06-02T06:20:00Z,28.1635,-88.4842,39.2,25.8,11111222
W and T,ioos:station:wmo:42901:1,2020-06-02T06:40:00Z,28.1635,-88.4842,39.2,25.8,11111222
W and T,ioos:station:wmo:42901:1,2020-06-02T07:00:00Z,28.1635,-88.4842,39.1,25.7,11111222
W and T,ioos:station:wmo:42901:1,2020-06-02T07:20:00Z,28.1635,-88.4842,39.1,25.5,11111222
W and T,ioos:station:wmo:42901:1,2020-06-02T07:40:00Z,28.1635,-88.4842,39.2,24.6,11111222
W and T,ioos:station:wmo:42901:1,2020-06-02T08:00:00Z,28.1635,-88.4842,39.2,24.1,11111222
W and T,ioos:station:wmo:42901:1,2020-06-02T08:20:00Z,28.1635,-88.4842,39.0,24.4,11111222
W and T,ioos:station:wmo:42901:1,2020-06-02T08:40:00Z,28.1635,-88.4842,38.9,24.1,11111222
W and T,ioos:station:wmo:42901:1,2020-06-02T09:00:00Z,28.1635,-88.4842,38.9,24.2,11111222
W and T,ioos:station:wmo:42901:1,2020-06-02T09:20:00Z,28.1635,-88.4842,38.8,24.5,11111222
W and T,ioos:station:wmo:42901:1,2020-06-02T09:40:00Z,28.1635,-88.4842,38.6,24.6,11111222
W and T,ioos:station:wmo:42901:1,2020-06-02T10:00:00Z,28.1635,-88.4842,39.0,24.7,11111222
W and T,ioos:station:wmo:42901:1,2020-06-02T10:20:00Z,28.1635,-88.4842,39.0,24.8,11111222
W and T,ioos:station:wmo:42901:1,2020-06-02T10:40:00Z,28.1635,-88.4842,38.9,24.9,11111222
W and T,ioos:station:wmo:42901:1,2020-06-02T11:00:00Z,28.1635,-88.4842,38.9,25.0,11111222
W and T,ioos:station:wmo:42901:1,2020-06-02T11:20:00Z,28.1635,-88.4842,38.9,25.1,11111222
W and T,ioos:station:wmo:42901:1,2020-06-02T11:40:00Z,28.1635,-88.4842,38.9,25.0,11111222
W and T,ioos:station:wmo:42901:1,2020-06-02T12:00:00Z,28.1635,-88.4842,38.9,24.9,11111222
W and T,ioos:station:wmo:42901:1,2020-06-02T12:20:00Z,28.1635,-88.4842,38.8,25.0,11111222
W and T,ioos:station:wmo:42901:1,2020-06-02T12:40:00Z,28.1635,-88.4842,38.8,24.9,11111222
W and T,ioos:station:wmo:42901:1,2020-06-02T13:00:00Z,28.1635,-88.4842,39.0,24.8,11111222
W and T,ioos:station:wmo:42901:1,2020-06-02T13:20:00Z,28.1635,-88.4842,39.0,24.9,11111222
W and T,ioos:station:wmo:42901:1,2020-06-02T13:40:00Z,28.1635,-88.4842,39.0,25.0,11111222
W and T,ioos:station:wmo:42901:1,2020-06-02T14:00:00Z,28.1635,-88.4842,39.0,25.1,11111222
W and T,ioos:station:wmo:42901:1,2020-06-02T14:20:00Z,28.1635,-88.4842,38.9,25.2,11111222
W and T,ioos:station:wmo:42901:1,2020-06-02T14:40:00Z,28.1635,-88.4842,38.9,25.2,11111222
W and T,ioos:station:wmo:42901:1,2020-06-02T15:00:00Z,28.1635,-88.4842,38.8,25.3,11111222
W and T,ioos:station:wmo:42901:1,2020-06-02T15:20:00Z,28.1635,-88.4842,38.8,25.3,11111222
W and T,ioos:station:wmo:42901:1,2020-06-02T15:40:00Z,28.1635,-88.4842,38.9,25.3,11111222
W and T,ioos:station:wmo:42901:1,2020-06-02T16:00:00Z,28.1635,-88.4842,38.8,25.4,11111222
W and T,ioos:station:wmo:42901:1,2020-06-02T16:20:00Z,28.1635,-88.4842,38.8,25.5,11111222
W and T,ioos:station:wmo:42901:1,2020-06-02T16:40:00Z,28.1635,-88.4842,38.9,25.5,11111222
W and T,ioos:station:wmo:42901:1,2020-06-02T17:00:00Z,28.1635,-88.4842,39.0,25.8,11111222
W and T,ioos:station:wmo:42901:1,2020-06-02T17:20:00Z,28.1635,-88.4842,39.0,25.9,11111222
W and T,ioos:station:wmo:42901:1,2020-06-02T17:40:00Z,28.1635,-88.4842,39.0,25.9,11111222
W and T,ioos:station:wmo:42901:1,2020-06-02T18:00:00Z,28.1635,-88.4842,38.9,25.9,11111222
W and T,ioos:station:wmo:42901:1,2020-06-02T18:20:00Z,28.1635,-88.4842,38.9,25.7,11111222
W and T,ioos:station:wmo:42901:1,2020-06-02T18:40:00Z,28.1635,-88.4842,38.8,25.5,11111222
W and T,ioos:station:wmo:42901:1,2020-06-02T19:00:00Z,28.1635,-88.4842,38.5,25.5,11111222
W and T,ioos:station:wmo:42901:1,2020-06-02T19:20:00Z,28.1635,-88.4842,38.5,25.5,11111222
W and T,ioos:station:wmo:42901:1,2020-06-02T19:40:00Z,28.1635,-88.4842,38.4,25.7,11111222
W and T,ioos:station:wmo:42901:1,2020-06-02T20:00:00Z,28.1635,-88.4842,38.7,25.9,11111222
W and T,ioos:station:wmo:42901:1,2020-06-02T20:20:00Z,28.1635,-88.4842,38.9,26.0,11111222
W and T,ioos:station:wmo:42901:1,2020-06-02T20:40:00Z,28.1635,-88.4842,38.8,26.0,11111222
W and T,ioos:station:wmo:42901:1,2020-06-02T21:00:00Z,28.1635,-88.4842,38.9,26.0,11111222
W and T,ioos:station:wmo:42901:1,2020-06-02T21:20:00Z,28.1635,-88.4842,39.0,25.9,11111222
W and T,ioos:station:wmo:42901:1,2020-06-02T21:40:00Z,28.1635,-88.4842,39.1,26.0,11111222
W and T,ioos:station:wmo:42901:1,2020-06-02T22:00:00Z,28.1635,-88.4842,39.0,26.1,11111222
W and T,ioos:station:wmo:42901:1,2020-06-02T22:20:00Z,28.1635,-88.4842,38.8,26.2,11111222
W and T,ioos:station:wmo:42901:1,2020-06-02T22:40:00Z,28.1635,-88.4842,38.8,26.1,11111222
W and T,ioos:station:wmo:42901:1,2020-06-02T23:00:00Z,28.1635,-88.4842,38.9,26.0,11111222
W and T,ioos:station:wmo:42901:1,2020-06-02T23:20:00Z,28.1635,-88.4842,38.7,26.0,11111222
W and T,ioos:station:wmo:42901:1,2020-06-02T23:40:00Z,28.1635,-88.4842,38.7,26.1,11111222
W and T,ioos:station:wmo:42901:1,2020-06-03T00:00:00Z,28.1635,-88.4842,38.7,26.1,11111222
W and T,ioos:station:wmo:42901:1,2020-06-03T00:20:00Z,28.1635,-88.4842,38.7,26.2,11111222
W and T,ioos:station:wmo:42901:1,2020-06-03T00:40:00Z,28.1635,-88.4842,38.7,26.1,11111222
W and T,ioos:station:wmo:42901:1,2020-06-03T01:00:00Z,28.1635,-88.4842,38.8,26.1,11111222
W and T,ioos:station:wmo:42901:1,2020-06-03T01:20:00Z,28.1635,-88.4842,38.8,26.1,11111222
W and T,ioos:station:wmo:42901:1,2020-06-03T01:40:00Z,28.1635,-88.4842,38.8,26.1,11111222
W and T,ioos:station:wmo:42901:1,2020-06-03T02:00:00Z,28.1635,-88.4842,38.8,26.1,11111222
W and T,ioos:station:wmo:42901:1,2020-06-03T02:20:00Z,28.1635,-88.4842,38.9,26.1,11111222
W and T,ioos:station:wmo:42901:1,2020-06-03T02:40:00Z,28.1635,-88.4842,38.9,25.9,11111222
W and T,ioos:station:wmo:42901:1,2020-06-03T03:00:00Z,28.1635,-88.4842,38.7,25.8,11111222
W and T,ioos:station:wmo:42901:1,2020-06-03T03:20:00Z,28.1635,-88.4842,38.7,26.0,11111222
W and T,ioos:station:wmo:42901:1,2020-06-03T03:40:00Z,28.1635,-88.4842,38.7,26.0,11111222
W and T,ioos:station:wmo:42901:1,2020-06-03T04:00:00Z,28.1635,-88.4842,38.7,25.9,11111222
W and T,ioos:station:wmo:42901:1,2020-06-03T04:20:00Z,28.1635,-88.4842,38.7,25.9,11111222
W and T,ioos:station:wmo:42901:1,2020-06-03T04:40:00Z,28.1635,-88.4842,38.7,25.7,11111222
W and T,ioos:station:wmo:42901:1,2020-06-03T05:00:00Z,28.1635,-88.4842,38.7,25.7,11111222
W and T,ioos:station:wmo:42901:1,2020-06-03T05:20:00Z,28.1635,-88.4842,38.7,25.6,11111222
W and T,ioos:station:wmo:42901:1,2020-06-03T05:40:00Z,28.1635,-88.4842,38.7,25.4,11111222
W and T,ioos:station:wmo:42901:1,2020-06-03T06:00:00Z,28.1635,-88.4842,38.7,24.9,11111222
W and T,ioos:station:wmo:42901:1,2020-06-03T06:20:00Z,28.1635,-88.4842,38.7,25.1,11111222
W and T,ioos:station:wmo:42901:1,2020-06-03T06:40:00Z,28.1635,-88.4842,38.7,25.1,11111222
W and T,ioos:station:wmo:42901:1,2020-06-03T07:00:00Z,28.1635,-88.4842,38.7,25.1,11111222
W and T,ioos:station:wmo:42901:1,2020-06-03T07:20:00Z,28.1635,-88.4842,38.9,24.8,11111222
W and T,ioos:station:wmo:42901:1,2020-06-03T07:40:00Z,28.1635,-88.4842,39.2,24.6,11111222
W and T,ioos:station:wmo:42901:1,2020-06-03T08:00:00Z,28.1635,-88.4842,39.2,24.7,11111222
W and T,ioos:station:wmo:42901:1,2020-06-03T08:20:00Z,28.1635,-88.4842,38.9,24.7,11111222
W and T,ioos:station:wmo:42901:1,2020-06-03T08:40:00Z,28.1635,-88.4842,38.7,25.0,11111222
W and T,ioos:station:wmo:42901:1,2020-06-03T09:00:00Z,28.1635,-88.4842,38.7,25.2,11111222
W and T,ioos:station:wmo:42901:1,2020-06-03T09:20:00Z,28.1635,-88.4842,38.7,25.2,11111222
W and T,ioos:station:wmo:42901:1,2020-06-03T09:40:00Z,28.1635,-88.4842,38.7,25.2,11111222
W and T,ioos:station:wmo:42901:1,2020-06-03T10:00:00Z,28.1635,-88.4842,38.8,25.3,11111222
W and T,ioos:station:wmo:42901:1,2020-06-03T10:20:00Z,28.1635,-88.4842,38.8,25.4,11111222
W and T,ioos:station:wmo:42901:1,2020-06-03T10:40:00Z,28.1635,-88.4842,38.8,25.5,11111222
W and T,ioos:station:wmo:42901:1,2020-06-03T11:00:00Z,28.1635,-88.4842,38.9,25.6,11111222
W and T,ioos:station:wmo:42901:1,2020-06-03T11:20:00Z,28.1635,-88.4842,38.9,25.6,11111222
W and T,ioos:station:wmo:42901:1,2020-06-03T11:40:00Z,28.1635,-88.4842,38.9,25.5,11111222
W and T,ioos:station:wmo:42901:1,2020-06-03T12:00:00Z,28.1635,-88.4842,38.9,25.4,11111222
W and T,ioos:station:wmo:42901:1,2020-06-03T12:20:00Z,28.1635,-88.4842,38.5,25.4,11111222
W and T,ioos:station:wmo:42901:1,2020-06-03T12:40:00Z,28.1635,-88.4842,38.7,25.4,11111222
W and T,ioos:station:wmo:42901:1,2020-06-03T13:00:00Z,28.1635,-88.4842,39.0,25.4,11111222
W and T,ioos:station:wmo:42901:1,2020-06-03T13:20:00Z,28.1635,-88.4842,39.2,25.6,11111222
W and T,ioos:station:wmo:42901:1,2020-06-03T13:40:00Z,28.1635,-88.4842,39.2,25.6,11111222
W and T,ioos:station:wmo:42901:1,2020-06-03T14:00:00Z,28.1635,-88.4842,39.3,25.8,11111222
W and T,ioos:station:wmo:42901:1,2020-06-03T14:20:00Z,28.1635,-88.4842,39.2,26.0,11111222
W and T,ioos:station:wmo:42901:1,2020-06-03T14:40:00Z,28.1635,-88.4842,39.1,26.0,11111222
W and T,ioos:station:wmo:42901:1,2020-06-03T15:00:00Z,28.1635,-88.4842,39.6,26.0,11111222
W and T,ioos:station:wmo:42901:1,2020-06-03T15:20:00Z,28.1635,-88.4842,39.6,26.0,11111222
W and T,ioos:station:wmo:42901:1,2020-06-03T15:40:00Z,28.1635,-88.4842,39.1,25.9,11111222
W and T,ioos:station:wmo:42901:1,2020-06-03T16:00:00Z,28.1635,-88.4842,39.0,25.9,11111222
W and T,ioos:station:wmo:42901:1,2020-06-03T16:20:00Z,28.1635,-88.4842,39.0,25.9,11111222
W and T,ioos:station:wmo:42901:1,2020-06-03T16:40:00Z,28.1635,-88.4842,38.8,25.9,11111222
W and T,ioos:station:wmo:42901:1,2020-06-03T17:00:00Z,28.1635,-88.4842,38.8,25.9,11111222
W and T,ioos:station:wmo:42901:1,2020-06-03T17:20:00Z,28.1635,-88.4842,38.9,26.0,11111222
W and T,ioos:station:wmo:42901:1,2020-06-03T17:40:00Z,28.1635,-88.4842,38.9,26.0,11111222
W and T,ioos:station:wmo:42901:1,2020-06-03T18:00:00Z,28.1635,-88.4842,38.9,26.0,11111222
W and T,ioos:station:wmo:42901:1,2020-06-03T18:20:00Z,28.1635,-88.4842,38.9,26.0,11111222
W and T,ioos:station:wmo:42901:1,2020-06-03T18:40:00Z,28.1635,-88.4842,38.8,26.1,11111222
W and T,ioos:station:wmo:42901:1,2020-06-03T19:00:00Z,28.1635,-88.4842,38.8,26.1,11111222
W and T,ioos:station:wmo:42901:1,2020-06-03T19:20:00Z,28.1635,-88.4842,38.9,26.1,11111222
W and T,ioos:station:wmo:42901:1,2020-06-03T19:40:00Z,28.1635,-88.4842,38.8,26.2,11111222
W and T,ioos:station:wmo:42901:1,2020-06-03T20:00:00Z,28.1635,-88.4842,38.8,26.2,11111222
W and T,ioos:station:wmo:42901:1,2020-06-03T20:20:00Z,28.1635,-88.4842,39.0,26.2,11111222
W and T,ioos:station:wmo:42901:1,2020-06-03T20:40:00Z,28.1635,-88.4842,39.1,26.2,11111222
W and T,ioos:station:wmo:42901:1,2020-06-03T21:00:00Z,28.1635,-88.4842,39.0,26.2,11111222
W and T,ioos:station:wmo:42901:1,2020-06-03T21:20:00Z,28.1635,-88.4842,39.1,26.3,11111222
W and T,ioos:station:wmo:42901:1,2020-06-03T21:40:00Z,28.1635,-88.4842,39.0,26.3,11111222
W and T,ioos:station:wmo:42901:1,2020-06-03T22:00:00Z,28.1635,-88.4842,39.0,26.3,11111222
W and T,ioos:station:wmo:42901:1,2020-06-03T22:20:00Z,28.1635,-88.4842,38.9,26.3,11111222
W and T,ioos:station:wmo:42901:1,2020-06-03T22:40:00Z,28.1635,-88.4842,38.8,26.4,11111222
W and T,ioos:station:wmo:42901:1,2020-06-03T23:00:00Z,28.1635,-88.4842,38.7,26.3,11111222
W and T,ioos:station:wmo:42901:1,2020-06-03T23:20:00Z,28.1635,-88.4842,38.6,26.3,11111222
W and T,ioos:station:wmo:42901:1,2020-06-03T23:40:00Z,28.1635,-88.4842,38.6,26.3,11111222
W and T,ioos:station:wmo:42901:1,2020-06-04T00:00:00Z,28.1635,-88.4842,38.7,26.3,11111222
W and T,ioos:station:wmo:42901:1,2020-06-04T00:20:00Z,28.1635,-88.4842,38.6,26.3,11111222
W and T,ioos:station:wmo:42901:1,2020-06-04T00:40:00Z,28.1635,-88.4842,38.6,26.1,11111222
W and T,ioos:station:wmo:42901:1,2020-06-04T01:00:00Z,28.1635,-88.4842,38.6,25.9,11111222
W and T,ioos:station:wmo:42901:1,2020-06-09T14:40:00Z,28.1670,-88.4809,39.1,26.5,11111222
W and T,ioos:station:wmo:42901:1,2020-06-09T15:00:00Z,28.1670,-88.4809,39.0,26.3,11111222
W and T,ioos:station:wmo:42901:1,2020-06-09T15:20:00Z,28.1670,-88.4809,39.0,26.4,11111222
W and T,ioos:station:wmo:42901:1,2020-06-09T15:40:00Z,28.1670,-88.4809,39.0,26.2,11111222
W and T,ioos:station:wmo:42901:1,2020-06-09T16:00:00Z,28.1670,-88.4809,38.9,26.2,11111222
W and T,ioos:station:wmo:42901:1,2020-06-09T16:20:00Z,28.1670,-88.4809,38.9,26.2,11111222
W and T,ioos:station:wmo:42901:1,2020-06-09T16:40:00Z,28.1670,-88.4809,38.9,26.4,11111222
W and T,ioos:station:wmo:42901:1,2020-06-09T17:00:00Z,28.1670,-88.4809,38.9,26.5,11111222
W and T,ioos:station:wmo:42901:1,2020-06-09T17:20:00Z,28.1670,-88.4809,38.9,26.5,11111222
W and T,ioos:station:wmo:42901:1,2020-06-09T17:40:00Z,28.1670,-88.4809,38.9,26.5,11111222
W and T,ioos:station:wmo:42901:1,2020-06-09T18:00:00Z,28.1670,-88.4809,38.9,26.4,11111222
W and T,ioos:station:wmo:42901:1,2020-06-09T18:20:00Z,28.1670,-88.4809,38.9,26.4,11111222
W and T,ioos:station:wmo:42901:1,2020-06-09T18:40:00Z,28.1670,-88.4809,38.9,26.5,11111222
W and T,ioos:station:wmo:42901:1,2020-06-09T19:00:00Z,28.1670,-88.4809,38.9,26.5,11111222
W and T,ioos:station:wmo:42901:1,2020-06-09T19:20:00Z,28.1670,-88.4809,38.9,26.5,11111222
W and T,ioos:station:wmo:42901:1,2020-06-09T19:40:00Z,28.1670,-88.4809,39.0,26.4,11111222
W and T,ioos:station:wmo:42901:1,2020-06-09T20:00:00Z,28.1670,-88.4809,38.9,26.5,11111222
W and T,ioos:station:wmo:42901:1,2020-06-09T20:20:00Z,28.1670,-88.4809,39.0,26.6,11111222
W and T,ioos:station:wmo:42901:1,2020-06-09T20:40:00Z,28.1670,-88.4809,38.9,26.7,11111222
W and T,ioos:station:wmo:42901:1,2020-06-09T21:00:00Z,28.1670,-88.4809,39.1,26.6,11111222
W and T,ioos:station:wmo:42901:1,2020-06-09T21:20:00Z,28.1670,-88.4809,39.0,26.6,11111222
W and T,ioos:station:wmo:42901:1,2020-06-09T21:40:00Z,28.1670,-88.4809,39.2,26.6,11111222
W and T,ioos:station:wmo:42901:1,2020-06-09T22:00:00Z,28.1670,-88.4809,39.2,26.5,11111222
W and T,ioos:station:wmo:42901:1,2020-06-09T22:20:00Z,28.1670,-88.4809,39.2,26.6,11111222
W and T,ioos:station:wmo:42901:1,2020-06-09T22:40:00Z,28.1670,-88.4809,39.0,26.7,11111222
W and T,ioos:station:wmo:42901:1,2020-06-09T23:00:00Z,28.1670,-88.4809,39.0,26.8,11111222
W and T,ioos:station:wmo:42901:1,2020-06-09T23:20:00Z,28.1670,-88.4809,39.0,26.7,11111222
W and T,ioos:station:wmo:42901:1,2020-06-09T23:40:00Z,28.1670,-88.4809,39.0,26.7,11111222
W and T,ioos:station:wmo:42901:1,2020-06-10T00:00:00Z,28.1670,-88.4809,38.8,26.5,11111222
W and T,ioos:station:wmo:42901:1,2020-06-10T00:20:00Z,28.1670,-88.4809,38.8,26.5,11111222
W and T,ioos:station:wmo:42901:1,2020-06-10T00:40:00Z,28.1670,-88.4809,39.0,26.3,11111222
W and T,ioos:station:wmo:42901:1,2020-06-10T01:00:00Z,28.1670,-88.4809,39.0,26.6,11111222
W and T,ioos:station:wmo:42901:1,2020-06-10T01:20:00Z,28.1670,-88.4809,39.1,26.4,11111222
W and T,ioos:station:wmo:42901:1,2020-06-10T01:40:00Z,28.1670,-88.4809,39.1,26.5,11111222
W and T,ioos:station:wmo:42901:1,2020-06-10T02:00:00Z,28.1670,-88.4809,39.1,26.4,11111222
W and T,ioos:station:wmo:42901:1,2020-06-10T02:20:00Z,28.1670,-88.4809,39.2,26.1,11111222
W and T,ioos:station:wmo:42901:1,2020-06-10T02:40:00Z,28.1670,-88.4809,39.1,26.1,11111222
W and T,ioos:station:wmo:42901:1,2020-06-10T03:00:00Z,28.1670,-88.4809,39.1,26.1,11111222
W and T,ioos:station:wmo:42901:1,2020-06-10T03:20:00Z,28.1670,-88.4809,39.2,26.1,11111222
W and T,ioos:station:wmo:42901:1,2020-06-10T03:40:00Z,28.1670,-88.4809,39.2,26.0,11111222
W and T,ioos:station:wmo:42901:1,2020-06-10T04:00:00Z,28.1670,-88.4809,39.2,25.9,11111222
W and T,ioos:station:wmo:42901:1,2020-06-10T04:20:00Z,28.1670,-88.4809,39.2,25.9,11111222
W and T,ioos:station:wmo:42901:1,2020-06-10T04:40:00Z,28.1670,-88.4809,39.2,25.9,11111222
W and T,ioos:station:wmo:42901:1,2020-06-10T05:00:00Z,28.1670,-88.4809,39.2,25.9,11111222
W and T,ioos:station:wmo:42901:1,2020-06-10T05:20:00Z,28.1670,-88.4809,39.3,25.8,11111222
W and T,ioos:station:wmo:42901:1,2020-06-10T05:40:00Z,28.1670,-88.4809,39.4,26.2,11111222
W and T,ioos:station:wmo:42901:1,2020-06-10T06:00:00Z,28.1670,-88.4809,39.4,26.3,11111222
W and T,ioos:station:wmo:42901:1,2020-06-10T06:20:00Z,28.1670,-88.4809,39.5,26.4,11111222